EHI
23 21 19 15 12 11 9 5 2 0 0 0 0 0 0 0 0 0 0 0 0 0 0 0 0 0 0 0 0 0 0 0 0 0 0 0 0 0 0 0 0 0 0
22 21 20 18 16 14 12 7 3 1 0 0 0 0 0 0 0 0 0 0 0 0 0 0 0 0 0 0 0 0 0 0 0 0 0 0 0 0 0 0 0 0 0
20 18 18 21 21 18 14 9 4 1 0 0 0 0 0 0 0 0 0 0 0 0 0 0 0 0 0 0 0 0 0 0 0 0 0 0 0 0 0 0 0 0 0
18 14 14 20 22 20 16 11 7 3 0 0 0 0 0 0 0 0 0 0 0 0 0 0 0 0 0 0 0 0 0 0 0 0 0 0 0 0 0 0 0 0 0
18 14 15 20 23 23 18 12 7 4 1 0 0 0 0 0 0 0 0 0 0 0 0 0 0 0 0 0 0 0 0 0 0 0 0 0 0 0 0 0 0 0 0
19 18 17 20 23 23 19 13 8 4 1 0 0 0 0 0 0 0 0 0 0 0 0 0 0 0 0 0 0 0 0 0 0 0 0 0 0 0 0 0 0 0 0
19 18 17 18 20 20 17 13 8 4 2 0 0 0 0 0 0 0 0 0 0 0 0 0 0 0 0 0 0 0 0 0 0 0 0 0 0 0 0 0 0 0 0
18 16 14 15 16 15 13 10 7 4 2 1 0 0 0 0 0 0 0 0 0 0 0 0 0 0 0 0 0 0 0 0 0 0 0 0 0 0 0 0 0 0 0
16 15 13 11 10 10 8 6 5 3 2 1 0 1 0 0 0 0 0 0 0 0 0 0 0 0 0 0 0 0 0 0 0 0 0 0 0 0 0 0 0 0 0
16 15 11 6 4 4 4 3 2 1 1 0 0 0 0 0 0 0 0 0 0 0 0 0 0 0 0 0 0 0 0 0 0 0 0 0 0 0 0 0 0 0 0
15 14 9 4 1 1 2 2 1 0 0 0 0 0 0 0 0 0 0 0 0 0 0 0 0 0 0 0 0 0 0 0 0 0 0 0 0 0 0 0 0 0 0
12 11 9 5 2 1 2 2 2 1 0 0 0 0 0 0 0 0 0 0 0 0 0 0 0 0 0 0 0 0 0 0 0 0 0 0 0 0 0 0 0 0 0
9 9 8 6 3 1 1 2 2 2 1 0 0 0 0 0 0 0 0 0 0 0 0 0 0 0 0 0 0 0 0 0 0 0 0 0 0 0 0 0 0 0 0
6 6 5 4 2 1 1 1 1 1 1 0 0 0 0 0 0 0 0 0 0 0 0 0 0 0 0 0 0 0 0 0 0 0 0 0 0 0 0 0 0 0 0
5 4 3 2 1 1 1 1 0 0 0 0 0 0 0 0 0 0 0 0 0 0 0 0 0 0 0 0 0 0 0 0 0 0 0 0 0 0 0 0 0 0 0
3 3 2 2 1 0 0 1 0 0 0 0 0 0 0 0 0 0 0 0 0 0 0 0 0 0 0 0 0 0 0 0 0 0 0 0 0 0 0 0 0 0 0
1 1 1 1 1 0 0 0 0 0 0 0 0 0 0 0 0 0 0 0 0 0 0 0 0 0 0 0 0 0 0 0 0 0 0 0 0 0 0 0 0 0 0
0 0 0 0 0 0 0 0 0 0 0 0 0 0 0 0 0 0 0 0 0 0 0 0 0 0 0 0 0 0 0 0 0 0 0 0 0 0 0 0 0 0 0
0 0 0 0 0 0 0 0 0 0 0 0 0 0 0 0 0 0 0 0 0 0 0 0 0 0 0 0 0 0 0 0 0 0 0 0 0 0 0 0 0 0 0
0 0 0 0 0 0 0 0 0 0 0 0 0 0 0 0 0 0 0 0 0 0 0 0 0 0 0 0 0 0 0 0 0 0 0 0 0 0 0 0 0 0 0
0 0 0 0 0 0 0 0 0 0 0 0 0 0 0 0 0 0 0 0 0 0 0 0 0 0 0 0 0 0 0 0 0 0 0 0 0 0 0 0 0 0 0
0 0 0 0 0 0 0 0 0 0 0 0 0 0 0 0 0 0 0 0 0 0 0 0 0 0 0 0 0 0 0 0 0 0 0 0 0 0 0 0 0 0 0
0 0 0 0 0 0 0 0 0 0 0 0 0 0 0 0 0 0 0 0 0 0 0 0 0 0 0 0 0 0 0 0 0 0 0 0 0 0 0 0 0 0 0
0 0 0 0 0 0 0 0 0 0 0 0 0 0 0 0 0 0 0 0 0 0 0 0 0 0 0 0 0 0 0 0 0 0 0 0 0 0 0 0 0 0 0
0 0 0 0 0 0 0 0 0 0 0 0 0 0 0 0 0 0 0 0 0 0 0 0 0 0 0 0 0 0 0 0 0 0 0 0 0 0 0 0 0 0 0
0 0 0 0 0 0 0 0 0 0 0 0 0 0 0 0 0 0 0 0 0 0 0 0 0 0 0 0 0 0 0 0 0 0 0 0 0 0 0 0 0 0 0
Wind_Speed
6 8 9 9 8 8 8 8 8 8 7 7 6 6 6 6 6 6 6 5 5 6 6 6 6 6 7 7 8 8 8 8 8 9 9 9 9 9 8 8 7 7 10
7 9 10 9 8 8 8 8 8 7 6 6 6 6 6 5 5 5 5 5 5 5 5 5 6 6 6 6 7 7 6 6 6 6 6 6 7 7 8 9 9 6 9
8 9 9 9 8 8 8 8 7 6 6 5 5 5 5 5 5 4 4 4 4 5 4 5 5 5 5 5 5 5 5 3 2 1 2 2 5 6 7 7 7 7 7
8 8 8 9 8 8 7 7 7 6 5 5 5 5 4 5 4 4 4 3 3 4 4 4 4 4 5 5 5 4 3 2 1 3 2 3 4 6 6 5 5 6 6
8 7 9 9 8 8 7 7 6 5 5 4 4 3 3 4 3 3 3 3 3 3 4 4 4 4 4 4 4 3 2 2 4 5 1 3 4 5 5 4 4 4 4
7 8 8 9 8 7 6 6 5 5 4 3 3 2 3 3 3 3 2 2 3 3 3 3 4 4 4 4 4 3 3 4 5 3 1 2 3 5 5 4 3 3 3
6 7 7 9 8 7 6 5 4 4 3 3 2 2 2 2 2 2 2 2 3 3 3 3 4 4 4 4 5 4 4 5 5 2 1 2 4 5 4 4 3 2 2
6 7 6 8 7 7 6 4 3 3 2 2 1 2 2 2 2 2 3 3 3 4 3 4 4 5 5 5 5 5 5 6 5 3 2 3 5 5 4 3 3 2 2
6 5 4 4 5 6 5 4 3 2 1 1 1 1 1 2 3 3 4 4 4 4 4 4 5 5 5 6 6 5 6 7 5 3 2 3 6 6 5 4 4 4 3
5 5 4 3 3 2 3 3 2 2 1 1 2 2 3 3 4 5 5 4 4 5 5 5 6 6 6 6 7 7 7 6 5 4 2 3 7 7 6 6 5 5 5
5 4 4 4 3 2 1 2 1 2 2 2 2 3 3 3 3 3 5 4 5 5 6 6 7 7 6 7 8 9 7 4 5 3 2 5 8 8 7 7 7 6 6
4 4 4 4 3 3 2 1 0 0 1 1 1 2 2 2 1 2 3 5 6 7 7 7 8 7 6 4 6 8 4 6 5 3 3 7 8 8 8 8 7 7 6
4 4 4 3 3 3 2 2 1 1 1 1 1 1 1 1 1 1 1 2 3 5 4 5 5 4 5 4 4 5 6 5 3 3 4 8 8 9 9 9 8 8 8
4 4 4 4 3 3 3 2 2 2 1 1 1 2 1 1 1 1 1 1 2 2 3 3 3 5 6 6 5 6 6 4 3 3 4 9 9 10 10 10 10 9 9
4 4 4 4 4 3 2 2 2 2 2 2 2 2 2 1 1 1 1 1 2 2 2 2 3 4 5 5 5 5 5 6 5 3 3 8 10 10 11 11 11 11 10
4 3 3 3 3 3 2 2 2 2 2 2 2 2 2 1 2 1 2 2 2 2 2 2 4 4 4 3 4 5 5 4 4 4 3 5 9 10 11 12 12 12 12
3 3 3 3 3 3 3 2 2 1 2 2 2 2 2 2 2 2 2 2 2 2 2 2 3 3 3 3 4 4 3 3 3 3 3 3 4 9 10 12 12 12 12
2 3 3 3 3 3 3 3 2 2 1 1 2 2 3 3 3 2 2 2 2 2 2 2 2 2 3 3 3 3 3 3 4 4 3 3 3 4 7 11 11 12 12
2 2 2 2 3 3 3 2 2 2 2 2 2 2 3 3 3 3 2 2 3 2 2 2 2 2 3 3 3 3 3 3 4 4 4 4 3 3 4 7 11 11 11
2 1 2 2 3 3 2 2 2 2 2 2 2 2 3 3 3 3 3 3 3 2 2 2 3 2 2 2 4 4 3 4 4 4 5 4 3 4 4 4 5 7 10
2 1 1 2 2 2 2 2 2 2 2 2 2 3 3 3 3 3 3 3 3 2 3 3 2 3 2 2 2 3 4 4 4 3 3 3 3 4 4 4 3 3 4
2 1 1 2 2 2 1 1 1 1 1 2 2 3 3 3 3 3 3 3 3 3 3 3 2 2 2 1 1 2 3 3 3 3 2 3 3 2 3 4 3 3 2
2 1 1 1 2 2 2 1 2 1 2 2 2 2 2 3 3 3 3 3 3 3 3 3 2 2 2 2 2 2 2 3 3 3 3 2 2 2 2 2 2 2 2
2 2 0 1 1 1 1 1 2 2 2 2 2 2 2 3 3 3 3 3 3 2 3 3 3 2 2 2 2 2 3 2 2 3 2 2 2 2 2 2 1 0 0
3 2 1 0 1 1 1 1 2 2 2 2 2 2 2 2 3 3 3 3 3 2 3 3 3 2 2 2 2 1 2 2 2 2 3 3 3 2 2 1 1 0 1
3 2 1 1 1 1 1 1 2 2 2 3 3 2 2 2 2 2 3 3 3 2 3 3 3 2 2 2 2 1 1 1 2 2 3 3 3 2 2 1 1 1 0
Wind_Direction
109 119 123 122 119 114 113 116 117 119 120 120 120 118 115 112 113 114 114 110 111 111 110 109 104 95 93 90 86 83 81 82 83 81 79 77 77 76 69 60 74 75 77
113 118 119 119 121 117 115 115 115 118 120 122 124 121 120 120 120 122 121 117 118 118 113 112 107 101 98 97 92 90 92 93 95 97 95 86 81 77 70 64 71 80 81
107 114 119 113 117 117 114 115 115 117 119 123 125 124 122 125 129 127 126 124 126 123 116 113 109 111 111 109 104 101 104 108 109 142 175 140 105 91 83 78 79 82 83
104 111 113 112 112 112 114 115 117 118 116 119 127 130 129 129 130 130 127 124 125 128 125 121 117 119 123 125 124 122 129 158 245 274 230 156 121 108 101 91 90 91 90
96 101 102 110 110 109 110 111 114 119 120 118 122 131 139 142 141 137 132 123 119 124 136 137 134 134 135 138 143 150 180 237 272 276 305 102 108 120 116 104 99 104 99
90 96 101 100 107 106 107 111 113 116 122 125 130 134 146 153 160 159 151 135 128 131 146 156 159 160 160 160 169 184 224 260 280 263 198 118 116 132 127 117 107 108 112
88 95 104 97 97 99 101 104 108 116 126 132 141 152 170 183 184 178 169 158 153 157 169 178 184 182 184 187 194 208 236 265 263 255 143 116 127 140 139 136 136 134 115
87 97 104 99 97 90 85 91 97 108 122 147 159 177 190 197 201 199 191 185 185 188 192 199 202 202 203 206 211 218 238 262 270 250 169 139 146 153 163 172 174 178 171
74 85 95 105 106 98 89 80 80 97 108 137 186 209 226 222 217 215 212 209 208 209 210 215 218 217 217 220 223 227 236 252 270 265 213 157 161 174 187 195 201 206 210
65 69 72 81 83 99 109 101 95 113 135 195 221 222 226 230 225 220 219 219 221 220 221 226 227 227 226 227 228 231 237 253 251 248 228 175 173 188 200 208 217 219 221
66 58 57 53 50 41 58 102 145 180 192 213 218 217 222 227 222 217 214 210 220 223 228 232 233 230 229 230 230 230 233 239 234 226 208 180 186 200 211 215 220 225 226
64 53 47 48 39 25 12 37 297 220 211 240 224 204 222 241 240 245 212 212 221 226 230 234 234 231 230 228 230 228 232 236 231 218 194 182 195 205 213 217 222 228 232
68 53 37 37 37 25 8 1 352 339 315 284 290 261 267 264 253 247 210 210 222 227 227 230 229 229 230 226 218 218 228 233 224 214 194 188 198 210 214 217 224 230 234
67 58 37 25 27 24 17 353 343 337 339 328 334 333 328 321 282 257 236 230 228 231 228 218 225 233 239 236 224 224 226 232 228 206 196 191 199 212 218 222 227 231 233
66 56 48 27 18 13 13 340 351 342 341 328 333 322 328 318 299 286 261 245 247 249 243 232 238 241 242 247 240 240 236 232 230 214 196 197 200 208 217 224 230 233 236
67 52 46 34 16 4 6 354 343 339 333 324 327 320 317 301 298 298 289 272 266 261 257 251 251 252 248 249 252 251 252 248 234 223 208 202 206 209 217 225 232 236 239
66 50 38 32 19 4 2 355 348 326 326 322 318 322 326 316 304 297 285 284 276 278 279 277 277 276 265 261 262 262 258 259 257 244 228 204 206 213 217 227 234 236 238
74 57 34 20 14 3 358 352 339 332 334 317 320 328 332 330 325 309 293 283 287 282 283 282 276 281 278 274 273 273 267 264 266 262 253 233 212 211 217 223 229 233 238
76 62 45 27 11 0 349 336 330 339 344 330 329 338 342 339 335 325 306 305 304 292 282 287 290 286 281 278 273 270 268 264 260 263 258 247 230 221 213 216 219 226 233
90 55 37 31 14 4 354 346 348 358 350 344 348 350 349 342 340 333 310 305 304 296 289 283 280 283 273 275 286 281 268 259 253 246 248 246 235 232 230 222 213 223 225
129 81 33 28 11 14 9 357 350 350 338 340 343 352 349 340 338 328 316 310 302 283 278 284 281 283 278 294 297 294 277 260 253 244 238 237 241 239 235 232 219 210 215
143 100 32 20 9 11 20 356 302 303 310 316 328 338 333 332 328 323 324 316 312 300 293 285 287 288 279 265 259 291 292 291 278 263 247 236 245 250 247 243 233 221 207
149 120 38 6 4 9 1 348 334 325 313 325 323 319 318 325 327 328 320 313 312 311 299 289 280 266 273 266 236 226 257 265 310 282 270 269 276 274 266 263 250 235 212
152 122 98 337 348 348 351 343 327 314 306 302 303 300 313 328 332 324 312 307 307 306 302 294 288 269 263 268 270 250 254 263 277 300 299 286 284 277 274 283 301 330 45
138 137 165 265 305 317 329 317 311 307 300 310 321 319 320 325 325 328 321 311 305 305 310 309 306 298 274 261 260 274 276 281 262 251 281 294 295 291 295 280 278 313 23
140 144 161 231 267 280 281 286 289 293 300 311 314 317 318 314 312 327 323 317 313 310 302 298 297 302 292 279 271 263 257 257 266 254 260 279 278 281 294 282 271 261 239